#datetime,building,power
2024-04-16T00:00:00,kyn,84.38
2024-04-16T00:01:00,kyn,46.88
2024-04-16T00:03:00,kyn,84.38
2024-04-16T00:05:00,kyn,84.38
2024-04-16T00:07:00,kyn,84.38
2024-04-16T00:09:00,kyn,71.25
2024-04-16T00:10:00,kyn,48.75
2024-04-16T00:11:00,kyn,35.62
2024-04-16T00:12:00,kyn,46.88
2024-04-16T00:14:00,kyn,84.38
2024-04-16T00:16:00,kyn,84.38
2024-04-16T00:18:00,kyn,84.38
2024-04-16T00:20:00,kyn,95.62
2024-04-16T00:22:00,kyn,84.38
2024-04-16T00:24:00,kyn,84.38
2024-04-16T00:26:00,kyn,95.62
2024-04-16T00:27:00,kyn,35.62
2024-04-16T00:29:00,kyn,84.38
2024-04-16T00:31:00,kyn,84.38
2024-04-16T00:33:00,kyn,71.25
2024-04-16T00:35:00,kyn,84.38
2024-04-16T00:37:00,kyn,95.62
2024-04-16T00:38:00,kyn,48.75
2024-04-16T00:39:00,kyn,35.62
2024-04-16T00:41:00,kyn,84.38
2024-04-16T00:42:00,kyn,46.88
2024-04-16T00:44:00,kyn,84.38
2024-04-16T00:45:00,kyn,48.75
2024-04-16T00:47:00,kyn,82.50
2024-04-16T00:48:00,kyn,48.75
2024-04-16T00:50:00,kyn,84.38
2024-04-16T00:52:00,kyn,84.38
2024-04-16T00:53:00,kyn,35.62
2024-04-16T00:55:00,kyn,24.38
2024-04-16T00:57:00,kyn,35.62
2024-04-16T00:59:00,kyn,24.38
2024-04-16T01:00:00,kyn,22.50
2024-04-16T01:02:00,kyn,24.38
2024-04-16T01:03:00,kyn,13.12
2024-04-16T01:04:00,kyn,11.25
2024-04-16T01:05:00,kyn,11.25
2024-04-16T01:07:00,kyn,24.38
2024-04-16T01:08:00,kyn,13.12
2024-04-16T01:09:00,kyn,22.50
2024-04-16T01:11:00,kyn,24.38
2024-04-16T01:12:00,kyn,13.12
2024-04-16T01:14:00,kyn,22.50
2024-04-16T01:16:00,kyn,37.50
2024-04-16T01:18:00,kyn,35.62
2024-04-16T01:19:00,kyn,11.25
2024-04-16T01:20:00,kyn,13.12
2024-04-16T01:21:00,kyn,11.25
2024-04-16T01:23:00,kyn,35.62
2024-04-16T01:25:00,kyn,24.38
2024-04-16T01:27:00,kyn,24.38
2024-04-16T01:28:00,kyn,11.25
2024-04-16T01:30:00,kyn,24.38
2024-04-16T01:32:00,kyn,35.62
2024-04-16T01:33:00,kyn,13.12
2024-04-16T01:35:00,kyn,22.50
2024-04-16T01:37:00,kyn,37.50
2024-04-16T01:38:00,kyn,11.25
2024-04-16T01:40:00,kyn,35.62
2024-04-16T01:42:00,kyn,24.38
2024-04-16T01:44:00,kyn,35.62
2024-04-16T01:45:00,kyn,13.12
2024-04-16T01:47:00,kyn,22.50
2024-04-16T01:49:00,kyn,24.38
2024-04-16T01:50:00,kyn,13.12
2024-04-16T01:52:00,kyn,35.62
2024-04-16T01:54:00,kyn,24.38
2024-04-16T01:56:00,kyn,46.88
2024-04-16T01:58:00,kyn,48.75
2024-04-16T02:00:00,kyn,35.62
2024-04-16T02:02:00,kyn,35.62
2024-04-16T02:04:00,kyn,35.62
2024-04-16T02:06:00,kyn,37.50
2024-04-16T02:07:00,kyn,22.50
2024-04-16T02:08:00,kyn,13.12
2024-04-16T02:10:00,kyn,35.62
2024-04-16T02:12:00,kyn,24.38
2024-04-16T02:13:00,kyn,24.38
2024-04-16T02:14:00,kyn,11.25
2024-04-16T02:16:00,kyn,35.62
2024-04-16T02:18:00,kyn,35.62
2024-04-16T02:20:00,kyn,24.38
2024-04-16T02:22:00,kyn,35.62
2024-04-16T02:24:00,kyn,24.38
2024-04-16T02:25:00,kyn,13.12
2024-04-16T02:26:00,kyn,22.50
2024-04-16T02:28:00,kyn,24.38
2024-04-16T02:30:00,kyn,35.62
2024-04-16T02:31:00,kyn,13.12
2024-04-16T02:33:00,kyn,24.38
2024-04-16T02:35:00,kyn,22.50
2024-04-16T02:36:00,kyn,13.12
2024-04-16T02:38:00,kyn,24.38
2024-04-16T02:40:00,kyn,22.50
2024-04-16T02:42:00,kyn,37.50
2024-04-16T02:44:00,kyn,22.50
2024-04-16T02:46:00,kyn,24.38
2024-04-16T02:47:00,kyn,13.12
2024-04-16T02:49:00,kyn,35.62
2024-04-16T02:51:00,kyn,35.62
2024-04-16T02:52:00,kyn,24.38
2024-04-16T02:54:00,kyn,35.62
2024-04-16T02:55:00,kyn,24.38
2024-04-16T02:56:00,kyn,11.25
2024-04-16T02:58:00,kyn,35.62
2024-04-16T03:00:00,kyn,37.50
2024-04-16T03:01:00,kyn,11.25
2024-04-16T03:03:00,kyn,35.62
2024-04-16T03:05:00,kyn,24.38
2024-04-16T03:07:00,kyn,24.38
2024-04-16T03:08:00,kyn,24.38
2024-04-16T03:10:00,kyn,22.50
2024-04-16T03:12:00,kyn,37.50
2024-04-16T03:14:00,kyn,35.62
2024-04-16T03:15:00,kyn,11.25
2024-04-16T03:17:00,kyn,35.62
2024-04-16T03:19:00,kyn,24.38
2024-04-16T03:21:00,kyn,35.62
2024-04-16T03:22:00,kyn,13.12
2024-04-16T03:24:00,kyn,35.62
2024-04-16T03:25:00,kyn,11.25
2024-04-16T03:27:00,kyn,37.50
2024-04-16T03:29:00,kyn,35.62
2024-04-16T03:30:00,kyn,11.25
2024-04-16T03:32:00,kyn,24.38
2024-04-16T03:33:00,kyn,24.38
2024-04-16T03:34:00,kyn,24.38
2024-04-16T03:36:00,kyn,35.62
2024-04-16T03:37:00,kyn,24.38
2024-04-16T03:39:00,kyn,35.62
2024-04-16T03:41:00,kyn,35.62
2024-04-16T03:42:00,kyn,11.25
2024-04-16T03:43:00,kyn,13.12
2024-04-16T03:45:00,kyn,35.62
2024-04-16T03:47:00,kyn,24.38
2024-04-16T03:49:00,kyn,35.62
2024-04-16T03:51:00,kyn,35.62
2024-04-16T03:53:00,kyn,35.62
2024-04-16T03:55:00,kyn,37.50
2024-04-16T03:57:00,kyn,46.88
2024-04-16T03:59:00,kyn,35.62
2024-04-16T04:00:00,kyn,13.12
2024-04-16T04:02:00,kyn,46.88
2024-04-16T04:03:00,kyn,13.12
2024-04-16T04:05:00,kyn,46.88
2024-04-16T04:07:00,kyn,48.75
2024-04-16T04:09:00,kyn,48.75
2024-04-16T04:10:00,kyn,35.62
2024-04-16T04:12:00,kyn,46.88
2024-04-16T04:14:00,kyn,60.00
2024-04-16T04:15:00,kyn,24.38
2024-04-16T04:17:00,kyn,60.00
2024-04-16T04:18:00,kyn,24.38
2024-04-16T04:20:00,kyn,60.00
2024-04-16T04:21:00,kyn,24.38
2024-04-16T04:23:00,kyn,60.00
2024-04-16T04:24:00,kyn,24.38
2024-04-16T04:26:00,kyn,46.88
2024-04-16T04:27:00,kyn,24.38
2024-04-16T04:28:00,kyn,24.38
2024-04-16T04:30:00,kyn,60.00
2024-04-16T04:32:00,kyn,46.88
2024-04-16T04:33:00,kyn,24.38
2024-04-16T04:34:00,kyn,24.38
2024-04-16T04:35:00,kyn,24.38
2024-04-16T04:37:00,kyn,46.88
2024-04-16T04:39:00,kyn,48.75
2024-04-16T04:41:00,kyn,48.75
2024-04-16T04:43:00,kyn,60.00
2024-04-16T04:45:00,kyn,60.00
2024-04-16T04:47:00,kyn,60.00
2024-04-16T04:49:00,kyn,60.00
2024-04-16T04:51:00,kyn,46.88
2024-04-16T04:52:00,kyn,24.38
2024-04-16T04:53:00,kyn,24.38
2024-04-16T04:55:00,kyn,46.88
2024-04-16T04:56:00,kyn,24.38
2024-04-16T04:58:00,kyn,60.00
2024-04-16T05:00:00,kyn,60.00
2024-04-16T05:02:00,kyn,73.12
2024-04-16T05:04:00,kyn,60.00
2024-04-16T05:05:00,kyn,22.50
2024-04-16T05:06:00,kyn,24.38
2024-04-16T05:08:00,kyn,60.00
2024-04-16T05:09:00,kyn,24.38
2024-04-16T05:11:00,kyn,60.00
2024-04-16T05:13:00,kyn,48.75
2024-04-16T05:15:00,kyn,46.88
2024-04-16T05:17:00,kyn,48.75
2024-04-16T05:18:00,kyn,24.38
2024-04-16T05:20:00,kyn,60.00
2024-04-16T05:22:00,kyn,46.88
2024-04-16T05:24:00,kyn,60.00
2024-04-16T05:25:00,kyn,35.62
2024-04-16T05:27:00,kyn,48.75
2024-04-16T05:28:00,kyn,35.62
2024-04-16T05:30:00,kyn,60.00
2024-04-16T05:31:00,kyn,24.38
2024-04-16T05:33:00,kyn,71.25
2024-04-16T05:34:00,kyn,60.00
2024-04-16T05:35:00,kyn,73.12
2024-04-16T05:37:00,kyn,144.38
2024-04-16T05:39:00,kyn,142.50
2024-04-16T05:40:00,kyn,73.12
2024-04-16T05:42:00,kyn,155.62
2024-04-16T05:44:00,kyn,144.38
2024-04-16T05:46:00,kyn,144.38
2024-04-16T05:47:00,kyn,71.25
2024-04-16T05:49:00,kyn,155.62
2024-04-16T05:51:00,kyn,144.38
2024-04-16T05:53:00,kyn,155.62
2024-04-16T05:55:00,kyn,144.38
2024-04-16T05:56:00,kyn,71.25
2024-04-16T05:58:00,kyn,144.38
2024-04-16T06:00:00,kyn,144.38
2024-04-16T06:02:00,kyn,155.62
2024-04-16T06:04:00,kyn,144.38
2024-04-16T06:06:00,kyn,155.62
2024-04-16T06:08:00,kyn,155.62
2024-04-16T06:09:00,kyn,73.12
2024-04-16T06:10:00,kyn,84.38
2024-04-16T06:12:00,kyn,155.62
2024-04-16T06:13:00,kyn,71.25
2024-04-16T06:14:00,kyn,84.38
2024-04-16T06:16:00,kyn,144.38
2024-04-16T06:17:00,kyn,71.25
2024-04-16T06:18:00,kyn,84.38
2024-04-16T06:20:00,kyn,144.38
2024-04-16T06:22:00,kyn,155.62
2024-04-16T06:24:00,kyn,144.38
2024-04-16T06:26:00,kyn,144.38
2024-04-16T06:28:00,kyn,142.50
2024-04-16T06:30:00,kyn,157.50
2024-04-16T06:31:00,kyn,71.25
2024-04-16T06:33:00,kyn,144.38
2024-04-16T06:35:00,kyn,155.62
2024-04-16T06:37:00,kyn,144.38
2024-04-16T06:39:00,kyn,155.62
2024-04-16T06:40:00,kyn,71.25
2024-04-16T06:41:00,kyn,84.38
2024-04-16T06:43:00,kyn,144.38
2024-04-16T06:45:00,kyn,144.38
2024-04-16T06:47:00,kyn,144.38
2024-04-16T06:49:00,kyn,142.50
2024-04-16T06:51:00,kyn,144.38
2024-04-16T06:52:00,kyn,84.38
2024-04-16T06:54:00,kyn,144.38
2024-04-16T06:56:00,kyn,144.38
2024-04-16T06:57:00,kyn,82.50
2024-04-16T06:59:00,kyn,144.38
2024-04-16T07:01:00,kyn,144.38
2024-04-16T07:03:00,kyn,144.38
2024-04-16T07:05:00,kyn,155.62
2024-04-16T07:07:00,kyn,144.38
2024-04-16T07:09:00,kyn,144.38
2024-04-16T07:11:00,kyn,155.62
2024-04-16T07:13:00,kyn,155.62
2024-04-16T07:15:00,kyn,144.38
2024-04-16T07:17:00,kyn,155.62
2024-04-16T07:19:00,kyn,155.62
2024-04-16T07:21:00,kyn,155.62
2024-04-16T07:23:00,kyn,157.50
2024-04-16T07:25:00,kyn,155.62
2024-04-16T07:27:00,kyn,166.88
2024-04-16T07:28:00,kyn,73.12
2024-04-16T07:30:00,kyn,155.62
2024-04-16T07:32:00,kyn,144.38
2024-04-16T07:34:00,kyn,144.38
2024-04-16T07:35:00,kyn,71.25
2024-04-16T07:37:00,kyn,144.38
2024-04-16T07:38:00,kyn,71.25
2024-04-16T07:40:00,kyn,155.62
2024-04-16T07:41:00,kyn,73.12
2024-04-16T07:43:00,kyn,144.38
2024-04-16T07:45:00,kyn,142.50
2024-04-16T07:46:00,kyn,73.12
2024-04-16T07:47:00,kyn,71.25
2024-04-16T07:49:00,kyn,144.38
2024-04-16T07:51:00,kyn,155.62
2024-04-16T07:52:00,kyn,60.00
2024-04-16T07:54:00,kyn,155.62
2024-04-16T07:56:00,kyn,144.38
2024-04-16T07:57:00,kyn,73.12
2024-04-16T07:59:00,kyn,155.62
2024-04-16T08:00:00,kyn,71.25
2024-04-16T08:01:00,kyn,73.12
2024-04-16T08:03:00,kyn,142.50
2024-04-16T08:05:00,kyn,144.38
2024-04-16T08:06:00,kyn,84.38
2024-04-16T08:08:00,kyn,144.38
2024-04-16T08:10:00,kyn,144.38
2024-04-16T08:12:00,kyn,155.62
2024-04-16T08:14:00,kyn,144.38
2024-04-16T08:16:00,kyn,155.62
2024-04-16T08:18:00,kyn,144.38
2024-04-16T08:20:00,kyn,155.62
2024-04-16T08:22:00,kyn,144.38
2024-04-16T08:23:00,kyn,71.25
2024-04-16T08:24:00,kyn,84.38
2024-04-16T08:26:00,kyn,144.38
2024-04-16T08:28:00,kyn,142.50
2024-04-16T08:29:00,kyn,73.12
2024-04-16T08:31:00,kyn,144.38
2024-04-16T08:32:00,kyn,71.25
2024-04-16T08:33:00,kyn,71.25
2024-04-16T08:35:00,kyn,144.38
2024-04-16T08:36:00,kyn,84.38
2024-04-16T08:38:00,kyn,144.38
2024-04-16T08:39:00,kyn,71.25
2024-04-16T08:41:00,kyn,144.38
2024-04-16T08:43:00,kyn,131.25
2024-04-16T08:45:00,kyn,157.50
2024-04-16T08:47:00,kyn,142.50
2024-04-16T08:49:00,kyn,144.38
2024-04-16T08:51:00,kyn,133.12
2024-04-16T08:53:00,kyn,142.50
2024-04-16T08:54:00,kyn,73.12
2024-04-16T08:56:00,kyn,144.38
2024-04-16T08:58:00,kyn,142.50
2024-04-16T09:00:00,kyn,144.38
2024-04-16T09:02:00,kyn,144.38
2024-04-16T09:03:00,kyn,60.00
2024-04-16T09:04:00,kyn,71.25
2024-04-16T09:05:00,kyn,73.12
2024-04-16T09:07:00,kyn,155.62
2024-04-16T09:08:00,kyn,71.25
2024-04-16T09:10:00,kyn,144.38
2024-04-16T09:11:00,kyn,73.12
2024-04-16T09:13:00,kyn,142.50
2024-04-16T09:14:00,kyn,73.12
2024-04-16T09:16:00,kyn,144.38
2024-04-16T09:18:00,kyn,142.50
2024-04-16T09:20:00,kyn,133.12
2024-04-16T09:22:00,kyn,144.38
2024-04-16T09:23:00,kyn,71.25
2024-04-16T09:24:00,kyn,71.25
2024-04-16T09:26:00,kyn,133.12
2024-04-16T09:27:00,kyn,71.25
2024-04-16T09:28:00,kyn,73.12
2024-04-16T09:30:00,kyn,142.50
2024-04-16T09:32:00,kyn,144.38
2024-04-16T09:34:00,kyn,144.38
2024-04-16T09:36:00,kyn,144.38
2024-04-16T09:38:00,kyn,144.38
2024-04-16T09:40:00,kyn,131.25
2024-04-16T09:42:00,kyn,144.38
2024-04-16T09:44:00,kyn,144.38
2024-04-16T09:45:00,kyn,82.50
2024-04-16T09:47:00,kyn,157.50
2024-04-16T09:49:00,kyn,131.25
2024-04-16T09:51:00,kyn,155.62
2024-04-16T09:52:00,kyn,73.12
2024-04-16T09:54:00,kyn,155.62
2024-04-16T09:56:00,kyn,144.38
2024-04-16T09:57:00,kyn,71.25
2024-04-16T09:59:00,kyn,144.38
2024-04-16T10:01:00,kyn,131.25
2024-04-16T10:03:00,kyn,144.38
2024-04-16T10:04:00,kyn,71.25
2024-04-16T10:06:00,kyn,133.12
2024-04-16T10:07:00,kyn,71.25
2024-04-16T10:09:00,kyn,144.38
2024-04-16T10:11:00,kyn,144.38
2024-04-16T10:13:00,kyn,144.38
2024-04-16T10:15:00,kyn,131.25
2024-04-16T10:17:00,kyn,144.38
2024-04-16T10:18:00,kyn,71.25
2024-04-16T10:20:00,kyn,144.38
2024-04-16T10:21:00,kyn,71.25
2024-04-16T10:23:00,kyn,144.38
2024-04-16T10:24:00,kyn,73.12
2024-04-16T10:26:00,kyn,142.50
2024-04-16T10:27:00,kyn,84.38
2024-04-16T10:29:00,kyn,144.38
2024-04-16T10:31:00,kyn,131.25
2024-04-16T10:33:00,kyn,157.50
2024-04-16T10:34:00,kyn,60.00
2024-04-16T10:35:00,kyn,71.25
2024-04-16T10:37:00,kyn,144.38
2024-04-16T10:39:00,kyn,144.38
2024-04-16T10:40:00,kyn,71.25
2024-04-16T10:42:00,kyn,144.38
2024-04-16T10:44:00,kyn,155.62
2024-04-16T10:46:00,kyn,144.38
2024-04-16T10:48:00,kyn,144.38
2024-04-16T10:50:00,kyn,142.50
2024-04-16T10:51:00,kyn,60.00
2024-04-16T10:53:00,kyn,144.38
2024-04-16T10:55:00,kyn,144.38
2024-04-16T10:57:00,kyn,131.25
2024-04-16T10:59:00,kyn,144.38
2024-04-16T11:01:00,kyn,133.12
2024-04-16T11:02:00,kyn,71.25
2024-04-16T11:04:00,kyn,155.62
2024-04-16T11:06:00,kyn,144.38
2024-04-16T11:07:00,kyn,71.25
2024-04-16T11:09:00,kyn,144.38
2024-04-16T11:10:00,kyn,73.12
2024-04-16T11:12:00,kyn,142.50
2024-04-16T11:14:00,kyn,133.12
2024-04-16T11:15:00,kyn,84.38
2024-04-16T11:17:00,kyn,155.62
2024-04-16T11:19:00,kyn,144.38
2024-04-16T11:21:00,kyn,142.50
2024-04-16T11:23:00,kyn,144.38
2024-04-16T11:24:00,kyn,73.12
2024-04-16T11:26:00,kyn,131.25
2024-04-16T11:28:00,kyn,131.25
2024-04-16T11:30:00,kyn,144.38
2024-04-16T11:31:00,kyn,73.12
2024-04-16T11:32:00,kyn,71.25
2024-04-16T11:34:00,kyn,144.38
2024-04-16T11:35:00,kyn,71.25
2024-04-16T11:37:00,kyn,133.12
2024-04-16T11:38:00,kyn,71.25
2024-04-16T11:40:00,kyn,144.38
2024-04-16T11:42:00,kyn,144.38
2024-04-16T11:44:00,kyn,142.50
2024-04-16T11:46:00,kyn,133.12
2024-04-16T11:48:00,kyn,144.38
2024-04-16T11:49:00,kyn,71.25
2024-04-16T11:51:00,kyn,144.38
2024-04-16T11:53:00,kyn,144.38
2024-04-16T11:55:00,kyn,131.25
2024-04-16T11:56:00,kyn,71.25
2024-04-16T11:57:00,kyn,73.12
2024-04-16T11:59:00,kyn,144.38
2024-04-16T12:01:00,kyn,131.25
2024-04-16T12:03:00,kyn,131.25
2024-04-16T12:05:00,kyn,144.38
2024-04-16T12:06:00,kyn,60.00
2024-04-16T12:08:00,kyn,133.12
2024-04-16T12:10:00,kyn,131.25
2024-04-16T12:11:00,kyn,71.25
2024-04-16T12:13:00,kyn,133.12
2024-04-16T12:15:00,kyn,144.38
2024-04-16T12:17:00,kyn,131.25
2024-04-16T12:19:00,kyn,131.25
2024-04-16T12:21:00,kyn,144.38
2024-04-16T12:22:00,kyn,60.00
2024-04-16T12:24:00,kyn,144.38
2024-04-16T12:26:00,kyn,131.25
2024-04-16T12:27:00,kyn,73.12
2024-04-16T12:29:00,kyn,131.25
2024-04-16T12:31:00,kyn,133.12
2024-04-16T12:33:00,kyn,131.25
2024-04-16T12:35:00,kyn,144.38
2024-04-16T12:37:00,kyn,131.25
2024-04-16T12:39:00,kyn,133.12
2024-04-16T12:40:00,kyn,71.25
2024-04-16T12:42:00,kyn,131.25
2024-04-16T12:44:00,kyn,144.38
2024-04-16T12:45:00,kyn,60.00
2024-04-16T12:47:00,kyn,144.38
2024-04-16T12:48:00,kyn,60.00
2024-04-16T12:49:00,kyn,71.25
2024-04-16T12:51:00,kyn,133.12
2024-04-16T12:52:00,kyn,71.25
2024-04-16T12:53:00,kyn,60.00
2024-04-16T12:54:00,kyn,73.12
2024-04-16T12:56:00,kyn,131.25
2024-04-16T12:58:00,kyn,131.25
2024-04-16T13:00:00,kyn,133.12
2024-04-16T13:01:00,kyn,71.25
2024-04-16T13:02:00,kyn,60.00
2024-04-16T13:04:00,kyn,133.12
2024-04-16T13:05:00,kyn,60.00
2024-04-16T13:06:00,kyn,71.25
2024-04-16T13:08:00,kyn,120.00
2024-04-16T13:10:00,kyn,131.25
2024-04-16T13:12:00,kyn,144.38
2024-04-16T13:13:00,kyn,60.00
2024-04-16T13:15:00,kyn,144.38
2024-04-16T13:17:00,kyn,131.25
2024-04-16T13:19:00,kyn,133.12
2024-04-16T13:20:00,kyn,60.00
2024-04-16T13:21:00,kyn,71.25
2024-04-16T13:23:00,kyn,120.00
2024-04-16T13:24:00,kyn,73.12
2024-04-16T13:26:00,kyn,131.25
2024-04-16T13:28:00,kyn,131.25
2024-04-16T13:30:00,kyn,144.38
2024-04-16T13:31:00,kyn,73.12
2024-04-16T13:33:00,kyn,155.62
2024-04-16T13:34:00,kyn,84.38
2024-04-16T13:36:00,kyn,142.50
2024-04-16T13:38:00,kyn,144.38
2024-04-16T13:40:00,kyn,144.38
2024-04-16T13:42:00,kyn,144.38
2024-04-16T13:43:00,kyn,71.25
2024-04-16T13:45:00,kyn,133.12
2024-04-16T13:47:00,kyn,142.50
2024-04-16T13:49:00,kyn,144.38
2024-04-16T13:51:00,kyn,133.12
2024-04-16T13:53:00,kyn,142.50
2024-04-16T13:55:00,kyn,133.12
2024-04-16T13:56:00,kyn,71.25
2024-04-16T13:58:00,kyn,133.12
2024-04-16T14:00:00,kyn,131.25
2024-04-16T14:01:00,kyn,71.25
2024-04-16T14:03:00,kyn,133.12
2024-04-16T14:05:00,kyn,131.25
2024-04-16T14:07:00,kyn,133.12
2024-04-16T14:08:00,kyn,71.25
2024-04-16T14:10:00,kyn,144.38
2024-04-16T14:11:00,kyn,60.00
2024-04-16T14:13:00,kyn,131.25
2024-04-16T14:14:00,kyn,73.12
2024-04-16T14:16:00,kyn,131.25
2024-04-16T14:18:00,kyn,144.38
2024-04-16T14:19:00,kyn,60.00
2024-04-16T14:21:00,kyn,131.25
2024-04-16T14:23:00,kyn,133.12
2024-04-16T14:24:00,kyn,71.25
2024-04-16T14:26:00,kyn,131.25
2024-04-16T14:28:00,kyn,133.12
2024-04-16T14:29:00,kyn,71.25
2024-04-16T14:31:00,kyn,133.12
2024-04-16T14:32:00,kyn,71.25
2024-04-16T14:34:00,kyn,144.38
2024-04-16T14:35:00,kyn,84.38
2024-04-16T14:37:00,kyn,131.25
2024-04-16T14:39:00,kyn,144.38
2024-04-16T14:41:00,kyn,131.25
2024-04-16T14:43:00,kyn,144.38
2024-04-16T14:45:00,kyn,131.25
2024-04-16T14:47:00,kyn,133.12
2024-04-16T14:49:00,kyn,131.25
2024-04-16T14:51:00,kyn,144.38
2024-04-16T14:53:00,kyn,131.25
2024-04-16T14:55:00,kyn,133.12
2024-04-16T14:56:00,kyn,60.00
2024-04-16T14:58:00,kyn,131.25
2024-04-16T15:00:00,kyn,133.12
2024-04-16T15:01:00,kyn,71.25
2024-04-16T15:03:00,kyn,131.25
2024-04-16T15:04:00,kyn,73.12
2024-04-16T15:06:00,kyn,131.25
2024-04-16T15:08:00,kyn,133.12
2024-04-16T15:09:00,kyn,71.25
2024-04-16T15:10:00,kyn,71.25
2024-04-16T15:12:00,kyn,133.12
2024-04-16T15:13:00,kyn,71.25
2024-04-16T15:15:00,kyn,133.12
2024-04-16T15:16:00,kyn,71.25
2024-04-16T15:18:00,kyn,131.25
2024-04-16T15:20:00,kyn,133.12
2024-04-16T15:21:00,kyn,71.25
2024-04-16T15:22:00,kyn,73.12
2024-04-16T15:24:00,kyn,166.88
2024-04-16T15:26:00,kyn,180.00
2024-04-16T15:28:00,kyn,180.00
2024-04-16T15:29:00,kyn,95.62
2024-04-16T15:31:00,kyn,180.00
2024-04-16T15:33:00,kyn,180.00
2024-04-16T15:35:00,kyn,180.00
2024-04-16T15:36:00,kyn,97.50
2024-04-16T15:38:00,kyn,180.00
2024-04-16T15:40:00,kyn,180.00
2024-04-16T15:42:00,kyn,180.00
2024-04-16T15:44:00,kyn,180.00
2024-04-16T15:46:00,kyn,180.00
2024-04-16T15:48:00,kyn,180.00
2024-04-16T15:50:00,kyn,166.88
2024-04-16T15:51:00,kyn,95.62
2024-04-16T15:52:00,kyn,97.50
2024-04-16T15:53:00,kyn,82.50
2024-04-16T15:55:00,kyn,180.00
2024-04-16T15:57:00,kyn,180.00
2024-04-16T15:59:00,kyn,180.00
2024-04-16T16:01:00,kyn,193.12
2024-04-16T16:03:00,kyn,191.25
2024-04-16T16:04:00,kyn,95.62
2024-04-16T16:06:00,kyn,180.00
2024-04-16T16:08:00,kyn,180.00
2024-04-16T16:10:00,kyn,180.00
2024-04-16T16:12:00,kyn,180.00
2024-04-16T16:14:00,kyn,180.00
2024-04-16T16:16:00,kyn,193.12
2024-04-16T16:18:00,kyn,191.25
2024-04-16T16:19:00,kyn,84.38
2024-04-16T16:21:00,kyn,191.25
2024-04-16T16:23:00,kyn,180.00
2024-04-16T16:25:00,kyn,193.12
2024-04-16T16:26:00,kyn,84.38
2024-04-16T16:28:00,kyn,191.25
2024-04-16T16:30:00,kyn,191.25
2024-04-16T16:32:00,kyn,180.00
2024-04-16T16:34:00,kyn,193.12
2024-04-16T16:36:00,kyn,180.00
2024-04-16T16:38:00,kyn,180.00
2024-04-16T16:40:00,kyn,180.00
2024-04-16T16:41:00,kyn,95.62
2024-04-16T16:42:00,kyn,84.38
2024-04-16T16:44:00,kyn,180.00
2024-04-16T16:46:00,kyn,180.00
2024-04-16T16:47:00,kyn,95.62
2024-04-16T16:49:00,kyn,180.00
2024-04-16T16:50:00,kyn,84.38
2024-04-16T16:52:00,kyn,180.00
2024-04-16T16:53:00,kyn,95.62
2024-04-16T16:55:00,kyn,168.75
2024-04-16T16:57:00,kyn,180.00
2024-04-16T16:58:00,kyn,95.62
2024-04-16T17:00:00,kyn,180.00
2024-04-16T17:02:00,kyn,180.00
2024-04-16T17:03:00,kyn,95.62
2024-04-16T17:05:00,kyn,180.00
2024-04-16T17:07:00,kyn,168.75
2024-04-16T17:08:00,kyn,95.62
2024-04-16T17:10:00,kyn,191.25
2024-04-16T17:11:00,kyn,95.62
2024-04-16T17:13:00,kyn,204.38
2024-04-16T17:15:00,kyn,180.00
2024-04-16T17:16:00,kyn,84.38
2024-04-16T17:18:00,kyn,191.25
2024-04-16T17:20:00,kyn,180.00
2024-04-16T17:22:00,kyn,180.00
2024-04-16T17:23:00,kyn,97.50
2024-04-16T17:25:00,kyn,180.00
2024-04-16T17:27:00,kyn,180.00
2024-04-16T17:29:00,kyn,180.00
2024-04-16T17:31:00,kyn,191.25
2024-04-16T17:33:00,kyn,180.00
2024-04-16T17:35:00,kyn,168.75
2024-04-16T17:37:00,kyn,180.00
2024-04-16T17:38:00,kyn,95.62
2024-04-16T17:39:00,kyn,84.38
2024-04-16T17:41:00,kyn,180.00
2024-04-16T17:42:00,kyn,82.50
2024-04-16T17:43:00,kyn,84.38
2024-04-16T17:45:00,kyn,180.00
2024-04-16T17:46:00,kyn,95.62
2024-04-16T17:47:00,kyn,84.38
2024-04-16T17:49:00,kyn,180.00
2024-04-16T17:51:00,kyn,180.00
2024-04-16T17:53:00,kyn,180.00
2024-04-16T17:54:00,kyn,95.62
2024-04-16T17:56:00,kyn,193.12
2024-04-16T17:58:00,kyn,180.00
2024-04-16T17:59:00,kyn,84.38
2024-04-16T18:01:00,kyn,180.00
2024-04-16T18:03:00,kyn,166.88
2024-04-16T18:04:00,kyn,95.62
2024-04-16T18:06:00,kyn,168.75
2024-04-16T18:07:00,kyn,95.62
2024-04-16T18:08:00,kyn,84.38
2024-04-16T18:10:00,kyn,168.75
2024-04-16T18:11:00,kyn,95.62
2024-04-16T18:13:00,kyn,180.00
2024-04-16T18:14:00,kyn,95.62
2024-04-16T18:16:00,kyn,168.75
2024-04-16T18:17:00,kyn,95.62
2024-04-16T18:19:00,kyn,180.00
2024-04-16T18:21:00,kyn,180.00
2024-04-16T18:22:00,kyn,95.62
2024-04-16T18:24:00,kyn,191.25
2024-04-16T18:26:00,kyn,180.00
2024-04-16T18:28:00,kyn,180.00
2024-04-16T18:30:00,kyn,168.75
2024-04-16T18:32:00,kyn,204.38
2024-04-16T18:34:00,kyn,180.00
2024-04-16T18:36:00,kyn,191.25
2024-04-16T18:38:00,kyn,180.00
2024-04-16T18:39:00,kyn,95.62
2024-04-16T18:41:00,kyn,180.00
2024-04-16T18:43:00,kyn,193.12
2024-04-16T18:45:00,kyn,180.00
2024-04-16T18:47:00,kyn,180.00
2024-04-16T18:48:00,kyn,95.62
2024-04-16T18:50:00,kyn,180.00
2024-04-16T18:52:00,kyn,180.00
2024-04-16T18:54:00,kyn,180.00
2024-04-16T18:55:00,kyn,84.38
2024-04-16T18:57:00,kyn,180.00
2024-04-16T18:58:00,kyn,95.62
2024-04-16T18:59:00,kyn,84.38
2024-04-16T19:01:00,kyn,180.00
2024-04-16T19:02:00,kyn,95.62
2024-04-16T19:04:00,kyn,168.75
2024-04-16T19:06:00,kyn,180.00
2024-04-16T19:08:00,kyn,180.00
2024-04-16T19:10:00,kyn,191.25
2024-04-16T19:12:00,kyn,191.25
2024-04-16T19:13:00,kyn,84.38
2024-04-16T19:15:00,kyn,180.00
2024-04-16T19:17:00,kyn,168.75
2024-04-16T19:19:00,kyn,180.00
2024-04-16T19:21:00,kyn,180.00
2024-04-16T19:22:00,kyn,84.38
2024-04-16T19:24:00,kyn,180.00
2024-04-16T19:25:00,kyn,95.62
2024-04-16T19:27:00,kyn,166.88
2024-04-16T19:28:00,kyn,97.50
2024-04-16T19:30:00,kyn,166.88
2024-04-16T19:31:00,kyn,95.62
2024-04-16T19:33:00,kyn,180.00
2024-04-16T19:35:00,kyn,180.00
2024-04-16T19:37:00,kyn,180.00
2024-04-16T19:39:00,kyn,193.12
2024-04-16T19:41:00,kyn,180.00
2024-04-16T19:43:00,kyn,180.00
2024-04-16T19:44:00,kyn,84.38
2024-04-16T19:45:00,kyn,95.62
2024-04-16T19:47:00,kyn,180.00
2024-04-16T19:49:00,kyn,180.00
2024-04-16T19:50:00,kyn,95.62
2024-04-16T19:51:00,kyn,95.62
2024-04-16T19:53:00,kyn,193.12
2024-04-16T19:55:00,kyn,191.25
2024-04-16T19:57:00,kyn,180.00
2024-04-16T19:59:00,kyn,191.25
2024-04-16T20:01:00,kyn,193.12
2024-04-16T20:03:00,kyn,180.00
2024-04-16T20:05:00,kyn,180.00
2024-04-16T20:07:00,kyn,191.25
2024-04-16T20:08:00,kyn,84.38
2024-04-16T20:10:00,kyn,191.25
2024-04-16T20:12:00,kyn,180.00
2024-04-16T20:14:00,kyn,180.00
2024-04-16T20:16:00,kyn,180.00
2024-04-16T20:17:00,kyn,97.50
2024-04-16T20:18:00,kyn,95.62
2024-04-16T20:20:00,kyn,180.00
2024-04-16T20:21:00,kyn,95.62
2024-04-16T20:23:00,kyn,191.25
2024-04-16T20:25:00,kyn,193.12
2024-04-16T20:26:00,kyn,84.38
2024-04-16T20:28:00,kyn,202.50
2024-04-16T20:30:00,kyn,193.12
2024-04-16T20:31:00,kyn,95.62
2024-04-16T20:33:00,kyn,180.00
2024-04-16T20:35:00,kyn,191.25
2024-04-16T20:37:00,kyn,180.00
2024-04-16T20:38:00,kyn,97.50
2024-04-16T20:40:00,kyn,191.25
2024-04-16T20:42:00,kyn,180.00
2024-04-16T20:44:00,kyn,191.25
2024-04-16T20:46:00,kyn,193.12
2024-04-16T20:48:00,kyn,204.38
2024-04-16T20:50:00,kyn,191.25
2024-04-16T20:51:00,kyn,95.62
2024-04-16T20:53:00,kyn,180.00
2024-04-16T20:55:00,kyn,193.12
2024-04-16T20:56:00,kyn,82.50
2024-04-16T20:57:00,kyn,97.50
2024-04-16T20:59:00,kyn,191.25
2024-04-16T21:00:00,kyn,95.62
2024-04-16T21:02:00,kyn,180.00
2024-04-16T21:04:00,kyn,193.12
2024-04-16T21:05:00,kyn,82.50
2024-04-16T21:06:00,kyn,97.50
2024-04-16T21:08:00,kyn,191.25
2024-04-16T21:09:00,kyn,84.38
2024-04-16T21:11:00,kyn,191.25
2024-04-16T21:12:00,kyn,95.62
2024-04-16T21:14:00,kyn,193.12
2024-04-16T21:16:00,kyn,180.00
2024-04-16T21:18:00,kyn,191.25
2024-04-16T21:20:00,kyn,180.00
2024-04-16T21:21:00,kyn,95.62
2024-04-16T21:23:00,kyn,180.00
2024-04-16T21:24:00,kyn,97.50
2024-04-16T21:26:00,kyn,180.00
2024-04-16T21:28:00,kyn,191.25
2024-04-16T21:29:00,kyn,95.62
2024-04-16T21:31:00,kyn,180.00
2024-04-16T21:33:00,kyn,180.00
2024-04-16T21:34:00,kyn,95.62
2024-04-16T21:36:00,kyn,193.12
2024-04-16T21:38:00,kyn,191.25
2024-04-16T21:40:00,kyn,193.12
2024-04-16T21:42:00,kyn,191.25
2024-04-16T21:43:00,kyn,84.38
2024-04-16T21:45:00,kyn,191.25
2024-04-16T21:47:00,kyn,193.12
2024-04-16T21:49:00,kyn,180.00
2024-04-16T21:51:00,kyn,191.25
2024-04-16T21:53:00,kyn,180.00
2024-04-16T21:54:00,kyn,84.38
2024-04-16T21:56:00,kyn,191.25